Weather in Kemin

Kyrgyzstan     42°46′51″N   75°41′07″E
temp.,
°C
wind,
m/s
gust,
m/s
humid.,
%
clouds,
%
prec.,
mm/h
press.,
hPa
HPBL,
m
17 may, mon
mon1700:00+7ese33560 0.0 102127
03:00+6ese44550 0.0 102047
06:00+6ese44580 0.0 102150
09:00+14ese34390 0.0 1019602
12:00+18ne11260 0.0 10171405
15:00+19wnw33260 0.0 10161995
18:00+17wnw33410 0.0 10171132
21:00+11ene12620 0.0 101915
18 may, tue
tue1800:00+10ese23560 0.0 101824
03:00+9ese34450 0.0 101640
06:00+8ese44430 0.0 101649
09:00+16ese34320 0.0 1014556
12:00+20e11240 0.0 10121312
15:00+22wnw432615 0.0 10112284
18:00+17s224464 0.1 1013253
21:00+12e12575 0.2 101414
19 may, wed
wed1900:00+12e225767 0.3 101319
03:00+11ese23534 0.0 101122
06:00+11ese235013 0.0 101118
09:00+18e11341 0.0 1010418
12:00+21nw22291 0.0 10081663
15:00+22wnw5529100 0.0 10072257
18:00+17sw4548100 0.1 1009387
21:00+13wnw225399 0.0 101120
20 may, thu
thu2000:00+13ese3359100 0.1 101239
03:00+12ese345110 0.0 101032
06:00+12ese234762 0.0 101119
09:00+19wnw153026 0.0 10101890
12:00+21wnw582420 0.0 10093529
15:00+22nw792624 0.0 10093259
18:00+19w5104187 0.0 10101730
21:00+12ene117212 0.6 101616
21 may, fri
fri2100:00+11se23685 0.8 101520
03:00+10e226368 0.0 101422
06:00+10e22630 0.0 101520
09:00+17nne11450 0.0 1014491
12:00+20wnw33361 0.0 10131859
15:00+20wnw44377 0.1 10122022
18:00+18nnw344633 0.1 10141468
21:00+12ene34638 0.0 101769